| time (UTC) | temp F | wind direction | speed knots | gust knots | rain 1hr in | rain 24hr in | rain mn in | humidity % | barometer mb |
| 20260506023956 | 62 | 93 | 0.0 | 0.0 | 0.00 | 0.00 | 0.00 | 73 | 1014.4 |
| 20260506023453 | 62 | 93 | 0.0 | 0.0 | 0.00 | 0.00 | 0.00 | 71 | 1014.4 |
| 20260506022950 | 62 | 93 | 0.0 | 0.0 | 0.00 | 0.00 | 0.00 | 71 | 1014.4 |
| 20260506022448 | 63 | 93 | 0.0 | 0.0 | 0.00 | 0.00 | 0.00 | 68 | 1014.3 |
| 20260506021945 | 63 | 93 | 0.0 | 0.0 | 0.00 | 0.00 | 0.00 | 69 | 1014.4 |
| 20260506021443 | 63 | 93 | 0.0 | 0.0 | 0.00 | 0.00 | 0.00 | 68 | 1014.2 |
| 20260506020940 | 63 | 93 | 0.0 | 0.0 | 0.00 | 0.00 | 0.00 | 67 | 1014.2 |
| 20260506020437 | 63 | 93 | 0.0 | 0.0 | 0.00 | 0.00 | 0.00 | 66 | 1014.4 |
| 20260506015934 | 63 | 93 | 0.0 | 0.0 | 0.00 | 0.00 | 0.00 | 67 | 1014.3 |
| 20260506015432 | 63 | 93 | 0.0 | 0.0 | 0.00 | 0.00 | 0.00 | 66 | 1014.2 |
| 20260506014929 | 62 | 93 | 0.0 | 0.0 | 0.00 | 0.00 | 0.00 | 67 | 1014.1 |
| 20260506014426 | 63 | 93 | 0.0 | 0.0 | 0.00 | 0.00 | 0.00 | 70 | 1013.9 |
| 20260506013922 | 62 | 93 | 0.0 | 0.0 | 0.00 | 0.00 | 0.00 | 69 | 1013.7 |
| 20260506013420 | 63 | 93 | 0.0 | 0.0 | 0.00 | 0.00 | 0.00 | 70 | 1013.7 |
| 20260506012916 | 62 | 93 | 0.0 | 0.0 | 0.00 | 0.00 | 0.00 | 70 | 1013.7 |
| 20260506012413 | 62 | 93 | 0.0 | 0.0 | 0.00 | 0.00 | 0.00 | 69 | 1013.4 |
| 20260506011910 | 62 | 93 | 0.0 | 0.0 | 0.00 | 0.00 | 0.00 | 70 | 1013.6 |
| 20260506011407 | 62 | 93 | 0.0 | 0.0 | 0.00 | 0.00 | 0.00 | 69 | 1013.5 |
| 20260506010904 | 62 | 93 | 0.0 | 0.0 | 0.00 | 0.00 | 0.00 | 67 | 1013.6 |
| 20260506010402 | 63 | 93 | 0.0 | 0.0 | 0.00 | 0.00 | 0.00 | 67 | 1013.7 |
| 20260506005858 | 63 | 93 | 0.0 | 0.0 | 0.00 | 0.00 | 0.00 | 63 | 1013.8 |
| 20260506005356 | 64 | 93 | 0.0 | 0.0 | 0.00 | 0.00 | 0.00 | 64 | 1013.8 |
| 20260506004851 | 64 | 93 | 0.0 | 0.0 | 0.00 | 0.00 | 0.00 | 60 | 1013.8 |
| 20260506004350 | 64 | 93 | 0.0 | 0.0 | 0.00 | 0.00 | 0.00 | 59 | 1014.1 |
| 20260506003845 | 64 | 93 | 0.0 | 0.0 | 0.00 | 0.00 | 0.00 | 59 | 1013.8 |
| 20260506003341 | 64 | 93 | 0.0 | 0.0 | 0.00 | 0.00 | 0.00 | 59 | 1014.2 |
| 20260506002838 | 64 | 93 | 0.0 | 0.0 | 0.00 | 0.00 | 0.00 | 59 | 1014.3 |
| 20260506002334 | 65 | 93 | 0.0 | 0.0 | 0.00 | 0.00 | 0.00 | 59 | 1014.2 |
| 20260506001830 | 65 | 93 | 0.0 | 0.0 | 0.00 | 0.00 | 0.00 | 59 | 1014.2 |
| 20260506001327 | 64 | 93 | 0.0 | 0.0 | 0.00 | 0.00 | 0.00 | 60 | 1014.1 |
| 20260506000824 | 65 | 93 | 0.0 | 0.0 | 0.00 | 0.00 | 0.00 | 59 | 1013.7 |
| 20260506000323 | 65 | 93 | 0.0 | 0.0 | 0.00 | 0.00 | 0.00 | 62 | 1013.8 |
| 20260505235819 | 65 | 97 | 0.0 | 0.0 | 0.00 | 0.00 | 0.00 | 61 | 1013.7 |
| 20260505235316 | 66 | 97 | 0.0 | 0.9 | 0.00 | 0.00 | 0.00 | 58 | 1013.9 |
| 20260505234813 | 67 | 99 | 0.0 | 0.0 | 0.00 | 0.00 | 0.00 | 56 | 1013.5 |
| 20260505234311 | 68 | 98 | 0.0 | 0.0 | 0.00 | 0.00 | 0.00 | 50 | 1013.6 |
| 20260505233808 | 68 | 98 | 0.0 | 0.0 | 0.00 | 0.00 | 0.00 | 49 | 1013.8 |
| 20260505233305 | 68 | 98 | 0.0 | 0.0 | 0.00 | 0.00 | 0.00 | 51 | 1013.7 |
| 20260505232802 | 68 | 100 | 0.0 | 0.0 | 0.00 | 0.00 | 0.00 | 49 | 1013.5 |
| 20260505232300 | 69 | 99 | 0.0 | 0.0 | 0.00 | 0.00 | 0.00 | 47 | 1013.8 |
| 20260505231756 | 69 | 103 | 0.0 | 0.0 | 0.00 | 0.00 | 0.00 | 46 | 1013.7 |
| 20260505231255 | 69 | 93 | 0.0 | 0.0 | 0.00 | 0.00 | 0.00 | 44 | 1013.9 |
| 20260505230753 | 69 | 91 | 0.0 | 0.0 | 0.00 | 0.00 | 0.00 | 45 | 1013.7 |
| 20260505230249 | 70 | 85 | 0.0 | 0.0 | 0.00 | 0.00 | 0.00 | 44 | 1013.8 |
| 20260505225746 | 70 | 113 | 0.0 | 0.0 | 0.00 | 0.00 | 0.00 | 43 | 1013.5 |
| 20260505225243 | 70 | 114 | 0.0 | 0.0 | 0.00 | 0.00 | 0.00 | 44 | 1013.6 |
| 20260505224738 | 70 | 115 | 0.9 | 0.9 | 0.00 | 0.00 | 0.00 | 45 | 1013.7 |
| 20260505224236 | 70 | 105 | 0.0 | 0.0 | 0.00 | 0.00 | 0.00 | 46 | 1013.9 |
| 20260505223733 | 71 | 114 | 0.9 | 0.9 | 0.00 | 0.00 | 0.00 | 45 | 1013.7 |
| 20260505223229 | 71 | 135 | 0.0 | 0.9 | 0.00 | 0.00 | 0.00 | 43 | 1013.6 |
| 20260505222726 | 71 | 98 | 0.0 | 0.9 | 0.00 | 0.00 | 0.00 | 41 | 1013.6 |
| 20260505222222 | 72 | 164 | 1.7 | 1.7 | 0.00 | 0.00 | 0.00 | 40 | 1013.8 |
| 20260505221719 | 72 | 121 | 0.9 | 0.9 | 0.00 | 0.00 | 0.00 | 40 | 1013.7 |
| 20260505221216 | 73 | 148 | 1.7 | 1.7 | 0.00 | 0.00 | 0.00 | 38 | 1013.8 |
| 20260505220713 | 73 | 124 | 0.9 | 0.9 | 0.00 | 0.00 | 0.00 | 39 | 1013.6 |
| 20260505220210 | 73 | 107 | 1.7 | 1.7 | 0.00 | 0.00 | 0.00 | 42 | 1013.7 |
| 20260505215708 | 73 | 146 | 0.9 | 1.7 | 0.00 | 0.00 | 0.00 | 41 | 1013.8 |
| 20260505215206 | 74 | 130 | 0.0 | 0.0 | 0.00 | 0.00 | 0.00 | 41 | 1013.4 |
| 20260505214703 | 74 | 85 | 0.9 | 0.9 | 0.00 | 0.00 | 0.00 | 43 | 1013.2 |
| 20260505214201 | 75 | 115 | 0.9 | 0.9 | 0.00 | 0.00 | 0.00 | 44 | 1013.5 |
| 20260505213658 | 76 | 125 | 0.0 | 0.9 | 0.00 | 0.00 | 0.00 | 40 | 1013.5 |
| 20260505213155 | 76 | 92 | 0.0 | 0.0 | 0.00 | 0.00 | 0.00 | 41 | 1013.5 |
| 20260505212651 | 76 | 105 | 1.7 | 1.7 | 0.00 | 0.00 | 0.00 | 39 | 1013.4 |
| 20260505212148 | 76 | 102 | 0.9 | 0.9 | 0.00 | 0.00 | 0.00 | 38 | 1013.4 |
| 20260505211645 | 76 | 87 | 0.9 | 0.9 | 0.00 | 0.00 | 0.00 | 39 | 1013.3 |
| 20260505211142 | 76 | 104 | 0.9 | 0.9 | 0.00 | 0.00 | 0.00 | 38 | 1013.5 |
| 20260505210639 | 77 | 114 | 0.9 | 0.9 | 0.00 | 0.00 | 0.00 | 38 | 1013.5 |
| 20260505210135 | 78 | 93 | 0.0 | 0.0 | 0.00 | 0.00 | 0.00 | 37 | 1013.2 |
| 20260505205632 | 78 | 124 | 0.9 | 1.7 | 0.00 | 0.00 | 0.00 | 37 | 1013.4 |
| 20260505205130 | 76 | 62 | 0.9 | 1.7 | 0.00 | 0.00 | 0.00 | 37 | 1013.5 |
| 20260505204622 | 76 | 97 | 1.7 | 1.7 | 0.00 | 0.00 | 0.00 | 39 | 1013.6 |
| 20260505204120 | 76 | 216 | 2.6 | 2.6 | 0.00 | 0.00 | 0.00 | 36 | 1013.5 |
| 20260505203615 | 77 | 126 | 0.0 | 0.0 | 0.00 | 0.00 | 0.00 | 37 | 1013.4 |
| 20260505203113 | 78 | 154 | 1.7 | 1.7 | 0.00 | 0.00 | 0.00 | 37 | 1013.5 |
| 20260505202603 | 79 | 122 | 0.9 | 0.9 | 0.00 | 0.00 | 0.00 | 36 | 1013.5 |
| 20260505202059 | 79 | 165 | 0.0 | 0.9 | 0.00 | 0.00 | 0.00 | 39 | 1013.6 |
| 20260505201556 | 79 | 71 | 0.0 | 0.9 | 0.00 | 0.00 | 0.00 | 39 | 1013.7 |
| 20260505201054 | 79 | 142 | 1.7 | 2.6 | 0.00 | 0.00 | 0.00 | 38 | 1013.6 |
| 20260505200551 | 77 | 117 | 0.0 | 0.9 | 0.00 | 0.00 | 0.00 | 39 | 1013.6 |
| 20260505200048 | 77 | 133 | 0.9 | 1.7 | 0.00 | 0.00 | 0.00 | 40 | 1013.7 |
| 20260505195544 | 79 | 133 | 0.9 | 0.9 | 0.00 | 0.00 | 0.00 | 38 | 1013.7 |
| 20260505195041 | 79 | 252 | 0.9 | 1.7 | 0.00 | 0.00 | 0.00 | 36 | 1013.8 |
| 20260505194533 | 78 | 86 | 0.0 | 0.0 | 0.00 | 0.00 | 0.00 | 38 | 1013.9 |
| 20260505194028 | 80 | 105 | 0.0 | 0.9 | 0.00 | 0.00 | 0.00 | 37 | 1013.9 |
| 20260505193526 | 79 | 99 | 0.0 | 0.0 | 0.00 | 0.00 | 0.00 | 37 | 1013.9 |
| 20260505193023 | 79 | 98 | 0.0 | 0.9 | 0.00 | 0.00 | 0.00 | 36 | 1014.2 |
| 20260505192521 | 79 | 93 | 0.9 | 0.9 | 0.00 | 0.00 | 0.00 | 36 | 1014.2 |
| 20260505192019 | 79 | 141 | 0.9 | 0.9 | 0.00 | 0.00 | 0.00 | 33 | 1014.1 |
| 20260505191517 | 78 | 79 | 0.0 | 0.0 | 0.00 | 0.00 | 0.00 | 35 | 1014.4 |
| 20260505191015 | 78 | 239 | 1.7 | 1.7 | 0.00 | 0.00 | 0.00 | 36 | 1014.3 |
| 20260505190509 | 78 | 135 | 1.7 | 1.7 | 0.00 | 0.00 | 0.00 | 33 | 1014.4 |
| 20260505190005 | 78 | 98 | 0.0 | 0.9 | 0.00 | 0.00 | 0.00 | 35 | 1014.6 |
| 20260505185502 | 77 | 175 | 1.7 | 1.7 | 0.00 | 0.00 | 0.00 | 34 | 1014.8 |
| 20260505184958 | 77 | 122 | 0.9 | 0.9 | 0.00 | 0.00 | 0.00 | 36 | 1014.9 |
| 20260505184455 | 76 | 118 | 1.7 | 1.7 | 0.00 | 0.00 | 0.00 | 36 | 1014.8 |
| 20260505183952 | 77 | 222 | 1.7 | 2.6 | 0.00 | 0.00 | 0.00 | 33 | 1015.1 |
| 20260505183449 | 78 | 142 | 1.7 | 1.7 | 0.00 | 0.00 | 0.00 | 35 | 1014.9 |
| 20260505182945 | 77 | 102 | 0.0 | 0.9 | 0.00 | 0.00 | 0.00 | 35 | 1015.0 |
| 20260505182442 | 77 | 117 | 0.9 | 1.7 | 0.00 | 0.00 | 0.00 | 33 | 1015.0 |
| 20260505181938 | 77 | 97 | 0.9 | 0.9 | 0.00 | 0.00 | 0.00 | 35 | 1015.3 |
| 20260505181436 | 77 | 146 | 1.7 | 1.7 | 0.00 | 0.00 | 0.00 | 35 | 1015.3 |
| 20260505180933 | 76 | 123 | 0.9 | 0.9 | 0.00 | 0.00 | 0.00 | 37 | 1015.4 |
| 20260505180429 | 76 | 135 | 1.7 | 1.7 | 0.00 | 0.00 | 0.00 | 33 | 1015.4 |
| 20260505175926 | 76 | 155 | 0.9 | 1.7 | 0.00 | 0.00 | 0.00 | 35 | 1015.4 |
| 20260505175422 | 74 | 218 | 0.9 | 1.7 | 0.00 | 0.00 | 0.00 | 35 | 1015.5 |
| 20260505174918 | 74 | 151 | 1.7 | 2.6 | 0.00 | 0.00 | 0.00 | 35 | 1015.5 |
| 20260505174416 | 75 | 169 | 0.9 | 1.7 | 0.00 | 0.00 | 0.00 | 36 | 1015.7 |
| 20260505173912 | 75 | 209 | 1.7 | 1.7 | 0.00 | 0.00 | 0.00 | 39 | 1015.6 |
| 20260505173409 | 73 | 90 | 0.0 | 0.0 | 0.00 | 0.00 | 0.00 | 42 | 1016.1 |
| 20260505172906 | 73 | 96 | 0.9 | 0.9 | 0.00 | 0.00 | 0.00 | 43 | 1016.3 |
| 20260505172404 | 74 | 117 | 0.9 | 1.7 | 0.00 | 0.00 | 0.00 | 44 | 1016.0 |
| 20260505171903 | 74 | 193 | 0.9 | 1.7 | 0.00 | 0.00 | 0.00 | 41 | 1016.1 |
| 20260505171400 | 74 | 151 | 0.9 | 0.9 | 0.00 | 0.00 | 0.00 | 45 | 1016.1 |
| 20260505170857 | 74 | 228 | 0.9 | 1.7 | 0.00 | 0.00 | 0.00 | 45 | 1016.3 |
| 20260505170354 | 74 | 204 | 2.6 | 2.6 | 0.00 | 0.00 | 0.00 | 42 | 1016.2 |
| 20260505165849 | 73 | 150 | 0.9 | 0.9 | 0.00 | 0.00 | 0.00 | 41 | 1016.1 |
| 20260505165345 | 74 | 97 | 0.9 | 0.9 | 0.00 | 0.00 | 0.00 | 44 | 1016.1 |
| 20260505164841 | 74 | 86 | 0.0 | 0.0 | 0.00 | 0.00 | 0.00 | 44 | 1016.3 |
| 20260505164337 | 74 | 149 | 1.7 | 1.7 | 0.00 | 0.00 | 0.00 | 46 | 1016.3 |
| 20260505163836 | 75 | 84 | 0.0 | 0.0 | 0.00 | 0.00 | 0.00 | 42 | 1016.4 |
| 20260505163334 | 74 | 100 | 0.9 | 0.9 | 0.00 | 0.00 | 0.00 | 48 | 1016.6 |
| 20260505162832 | 74 | 215 | 0.9 | 1.7 | 0.00 | 0.00 | 0.00 | 46 | 1016.5 |
| 20260505162328 | 73 | 114 | 0.9 | 1.7 | 0.00 | 0.00 | 0.00 | 50 | 1016.7 |
| 20260505161825 | 73 | 105 | 0.0 | 0.0 | 0.00 | 0.00 | 0.00 | 47 | 1016.1 |
| 20260505161323 | 71 | 95 | 0.0 | 0.0 | 0.00 | 0.00 | 0.00 | 52 | 1016.6 |
| 20260505160820 | 70 | 120 | 0.9 | 0.9 | 0.00 | 0.00 | 0.00 | 51 | 1016.3 |
| 20260505160318 | 71 | 204 | 1.7 | 1.7 | 0.00 | 0.00 | 0.00 | 48 | 1016.4 |
| 20260505153256 | 71 | 80 | 0.0 | 0.0 | 0.00 | 0.00 | 0.00 | 52 | 1016.3 |
| 20260505152754 | 71 | 90 | 0.0 | 0.0 | 0.00 | 0.00 | 0.00 | 52 | 1016.8 |
| 20260505152249 | 71 | 120 | 0.0 | 0.0 | 0.00 | 0.00 | 0.00 | 53 | 1016.5 |
| 20260505151744 | 69 | 68 | 0.0 | 0.0 | 0.00 | 0.00 | 0.00 | 52 | 1016.7 |
| 20260505151242 | 68 | 114 | 0.9 | 0.9 | 0.00 | 0.00 | 0.00 | 58 | 1016.9 |
| 20260505150738 | 68 | 85 | 0.0 | 0.9 | 0.00 | 0.00 | 0.00 | 51 | 1017.1 |
| 20260505150235 | 68 | 78 | 0.0 | 0.9 | 0.00 | 0.00 | 0.00 | 57 | 1016.6 |
| 20260505140200 | 62 | 79 | 0.0 | 0.9 | 0.00 | 0.00 | 0.00 | 71 | 1016.7 |
| 20260505130124 | 54 | 86 | 0.0 | 0.0 | 0.00 | 0.00 | 0.00 | 84 | 1016.5 |
| 20260505124614 | 52 | 88 | 0.0 | 0.0 | 0.00 | 0.00 | 0.00 | 90 | 1016.3 |
| 20260505124110 | 51 | 89 | 0.0 | 0.0 | 0.00 | 0.00 | 0.00 | 92 | 1016.3 |
| 20260505123606 | 51 | 89 | 0.0 | 0.0 | 0.00 | 0.00 | 0.00 | 94 | 1016.5 |
| 20260505123103 | 50 | 90 | 0.0 | 0.0 | 0.00 | 0.00 | 0.00 | 96 | 1016.3 |
| 20260505122559 | 50 | 90 | 0.0 | 0.0 | 0.00 | 0.00 | 0.00 | 97 | 1016.1 |
| 20260505122056 | 49 | 90 | 0.0 | 0.0 | 0.00 | 0.00 | 0.00 | 97 | 1016.2 |
| 20260505121553 | 48 | 90 | 0.0 | 0.0 | 0.00 | 0.00 | 0.00 | 97 | 1016.2 |
| 20260505121050 | 48 | 90 | 0.0 | 0.0 | 0.00 | 0.00 | 0.00 | 98 | 1016.2 |
| 20260505120546 | 48 | 90 | 0.0 | 0.0 | 0.00 | 0.00 | 0.00 | 98 | 1016.1 |
| 20260505120042 | 47 | 90 | 0.0 | 0.0 | 0.00 | 0.00 | 0.00 | 98 | 1016.0 |
| 20260505115537 | 47 | 90 | 0.0 | 0.0 | 0.00 | 0.00 | 0.00 | 98 | 1016.1 |
| 20260505115034 | 46 | 90 | 0.0 | 0.0 | 0.00 | 0.00 | 0.00 | 99 | 1016.2 |
| 20260505114531 | 46 | 90 | 0.0 | 0.0 | 0.00 | 0.00 | 0.00 | 99 | 1016.2 |
| 20260505114027 | 46 | 90 | 0.0 | 0.0 | 0.00 | 0.00 | 0.00 | 98 | 1016.0 |
| 20260505113524 | 46 | 90 | 0.0 | 0.0 | 0.00 | 0.00 | 0.00 | 98 | 1015.6 |
| 20260505113020 | 45 | 92 | 0.0 | 0.0 | 0.00 | 0.00 | 0.00 | 98 | 1015.6 |
| 20260505112516 | 45 | 84 | 0.0 | 0.0 | 0.00 | 0.00 | 0.00 | 98 | 1015.5 |
| 20260505112015 | 45 | 88 | 0.0 | 0.0 | 0.00 | 0.00 | 0.00 | 98 | 1015.7 |
| 20260505111508 | 45 | 88 | 0.0 | 0.0 | 0.00 | 0.00 | 0.00 | 98 | 1015.6 |
| 20260505111005 | 45 | 89 | 0.0 | 0.0 | 0.00 | 0.00 | 0.00 | 98 | 1015.5 |
| 20260505110502 | 45 | 82 | 0.0 | 0.0 | 0.00 | 0.00 | 0.00 | 98 | 1015.4 |
| 20260505101933 | 45 | 89 | 0.0 | 0.0 | 0.00 | 0.00 | 0.00 | 98 | 1015.5 |
| 20260505101427 | 45 | 89 | 0.0 | 0.0 | 0.00 | 0.00 | 0.00 | 98 | 1015.6 |
| 20260505100923 | 45 | 90 | 0.0 | 0.0 | 0.00 | 0.00 | 0.00 | 98 | 1015.7 |
| 20260505100420 | 45 | 90 | 0.0 | 0.0 | 0.00 | 0.00 | 0.00 | 98 | 1015.2 |
| 20260505095916 | 45 | 90 | 0.0 | 0.0 | 0.00 | 0.00 | 0.00 | 98 | 1015.5 |
| 20260505095413 | 44 | 90 | 0.0 | 0.0 | 0.00 | 0.00 | 0.00 | 98 | 1015.4 |
| 20260505094909 | 44 | 90 | 0.0 | 0.0 | 0.00 | 0.00 | 0.00 | 98 | 1015.3 |
| 20260505094406 | 44 | 90 | 0.0 | 0.0 | 0.00 | 0.00 | 0.00 | 98 | 1015.3 |
| 20260505093902 | 45 | 90 | 0.0 | 0.0 | 0.00 | 0.00 | 0.00 | 98 | 1015.4 |
| 20260505093359 | 45 | 90 | 0.0 | 0.0 | 0.00 | 0.00 | 0.00 | 98 | 1015.2 |
| 20260505092856 | 44 | 90 | 0.0 | 0.0 | 0.00 | 0.00 | 0.00 | 98 | 1015.3 |
| 20260505092354 | 44 | 90 | 0.0 | 0.0 | 0.00 | 0.00 | 0.00 | 98 | 1015.3 |
| 20260505091851 | 44 | 90 | 0.0 | 0.0 | 0.00 | 0.00 | 0.00 | 98 | 1015.3 |
| 20260505091349 | 45 | 91 | 0.0 | 0.0 | 0.00 | 0.00 | 0.00 | 98 | 1015.3 |
| 20260505090847 | 45 | 91 | 0.0 | 0.0 | 0.00 | 0.00 | 0.00 | 98 | 1015.4 |
| 20260505090345 | 45 | 92 | 0.0 | 0.0 | 0.00 | 0.00 | 0.00 | 98 | 1015.5 |
| 20260505085842 | 45 | 96 | 0.0 | 0.0 | 0.00 | 0.00 | 0.00 | 98 | 1015.5 |
| 20260505085340 | 45 | 84 | 0.0 | 0.0 | 0.00 | 0.00 | 0.00 | 98 | 1015.7 |
| 20260505084837 | 45 | 84 | 0.0 | 0.0 | 0.00 | 0.00 | 0.00 | 98 | 1015.4 |
| 20260505084336 | 45 | 83 | 0.0 | 0.0 | 0.00 | 0.00 | 0.00 | 98 | 1015.5 |
| 20260505083833 | 45 | 88 | 0.0 | 0.0 | 0.00 | 0.00 | 0.00 | 98 | 1015.4 |
| 20260505083330 | 45 | 88 | 0.0 | 0.0 | 0.00 | 0.00 | 0.00 | 98 | 1015.6 |
| 20260505082826 | 45 | 88 | 0.0 | 0.0 | 0.00 | 0.00 | 0.00 | 98 | 1015.4 |
| 20260505082323 | 45 | 88 | 0.0 | 0.0 | 0.00 | 0.00 | 0.00 | 98 | 1015.4 |
| 20260505081820 | 45 | 88 | 0.0 | 0.0 | 0.00 | 0.00 | 0.00 | 98 | 1015.4 |
| 20260505081316 | 46 | 88 | 0.0 | 0.0 | 0.00 | 0.00 | 0.00 | 97 | 1015.5 |
| 20260505080813 | 46 | 88 | 0.0 | 0.0 | 0.00 | 0.00 | 0.00 | 97 | 1015.5 |
| 20260505080309 | 46 | 88 | 0.0 | 0.0 | 0.00 | 0.00 | 0.00 | 97 | 1015.5 |
| 20260505075804 | 46 | 88 | 0.0 | 0.0 | 0.00 | 0.00 | 0.00 | 97 | 1015.6 |
| 20260505075304 | 46 | 88 | 0.0 | 0.0 | 0.00 | 0.00 | 0.00 | 97 | 1015.7 |
| 20260505074759 | 46 | 88 | 0.0 | 0.0 | 0.00 | 0.00 | 0.00 | 97 | 1015.5 |
| 20260505074256 | 46 | 88 | 0.0 | 0.0 | 0.00 | 0.00 | 0.00 | 97 | 1015.4 |
| 20260505073753 | 46 | 88 | 0.0 | 0.0 | 0.00 | 0.00 | 0.00 | 97 | 1015.7 |
| 20260505073251 | 46 | 88 | 0.0 | 0.0 | 0.00 | 0.00 | 0.00 | 97 | 1015.5 |
| 20260505072748 | 46 | 95 | 0.0 | 0.0 | 0.00 | 0.00 | 0.00 | 97 | 1015.4 |
| 20260505072244 | 46 | 95 | 0.0 | 0.0 | 0.00 | 0.00 | 0.00 | 97 | 1015.7 |
| 20260505071740 | 46 | 86 | 0.0 | 0.0 | 0.00 | 0.00 | 0.00 | 97 | 1015.6 |
| 20260505071237 | 46 | 86 | 0.0 | 0.0 | 0.00 | 0.00 | 0.00 | 96 | 1015.6 |
| 20260505070734 | 47 | 86 | 0.0 | 0.0 | 0.00 | 0.00 | 0.00 | 96 | 1015.5 |
| 20260505070230 | 47 | 86 | 0.0 | 0.0 | 0.00 | 0.00 | 0.00 | 96 | 1015.6 |
| 20260505065726 | 47 | 86 | 0.0 | 0.0 | 0.00 | 0.00 | 0.00 | 96 | 1015.6 |
| 20260505065223 | 47 | 85 | 0.0 | 0.0 | 0.00 | 0.00 | 0.00 | 96 | 1015.5 |
| 20260505064720 | 47 | 84 | 0.0 | 0.0 | 0.00 | 0.00 | 0.00 | 96 | 1015.6 |
| 20260505064218 | 47 | 83 | 0.0 | 0.0 | 0.00 | 0.00 | 0.00 | 96 | 1015.4 |
| 20260505063715 | 47 | 85 | 0.0 | 0.0 | 0.00 | 0.00 | 0.00 | 96 | 1015.6 |
| 20260505063211 | 47 | 85 | 0.0 | 0.0 | 0.00 | 0.00 | 0.00 | 95 | 1015.5 |
| 20260505062707 | 48 | 85 | 0.0 | 0.0 | 0.00 | 0.00 | 0.00 | 95 | 1015.4 |
| 20260505062206 | 48 | 85 | 0.0 | 0.0 | 0.00 | 0.00 | 0.00 | 95 | 1015.6 |
| 20260505061702 | 48 | 85 | 0.0 | 0.0 | 0.00 | 0.00 | 0.00 | 95 | 1015.5 |
| 20260505061200 | 48 | 85 | 0.0 | 0.0 | 0.00 | 0.00 | 0.00 | 95 | 1015.7 |
| 20260505060657 | 48 | 85 | 0.0 | 0.0 | 0.00 | 0.00 | 0.00 | 94 | 1015.7 |
| 20260505060154 | 48 | 85 | 0.0 | 0.0 | 0.00 | 0.00 | 0.00 | 94 | 1015.6 |
| 20260505055649 | 48 | 83 | 0.0 | 0.0 | 0.00 | 0.00 | 0.00 | 94 | 1015.4 |
| 20260505055146 | 49 | 83 | 0.0 | 0.0 | 0.00 | 0.00 | 0.00 | 94 | 1015.6 |
| 20260505054643 | 49 | 83 | 0.0 | 0.0 | 0.00 | 0.00 | 0.00 | 94 | 1015.8 |
| 20260505054141 | 49 | 86 | 0.0 | 0.0 | 0.00 | 0.00 | 0.00 | 94 | 1015.4 |
| 20260505053639 | 49 | 86 | 0.0 | 0.0 | 0.00 | 0.00 | 0.00 | 94 | 1015.6 |
| 20260505053135 | 49 | 88 | 0.0 | 0.0 | 0.00 | 0.00 | 0.00 | 94 | 1015.7 |
| 20260505052632 | 49 | 85 | 0.0 | 0.0 | 0.00 | 0.00 | 0.00 | 93 | 1015.8 |
| 20260505052130 | 49 | 85 | 0.0 | 0.0 | 0.00 | 0.00 | 0.00 | 93 | 1015.8 |
| 20260505051626 | 50 | 85 | 0.0 | 0.0 | 0.00 | 0.00 | 0.00 | 92 | 1015.5 |
| 20260505051125 | 50 | 85 | 0.0 | 0.0 | 0.00 | 0.00 | 0.00 | 92 | 1015.6 |
| 20260505050622 | 50 | 85 | 0.0 | 0.0 | 0.00 | 0.00 | 0.00 | 92 | 1015.7 |
| 20260505050120 | 50 | 86 | 0.0 | 0.0 | 0.00 | 0.00 | 0.00 | 92 | 1015.6 |
| 20260505041550 | 52 | 86 | 0.0 | 0.0 | 0.00 | 0.00 | 0.00 | 89 | 1015.8 |
| 20260505041047 | 52 | 85 | 0.0 | 0.0 | 0.00 | 0.00 | 0.00 | 89 | 1015.6 |
| 20260505040544 | 52 | 85 | 0.0 | 0.0 | 0.00 | 0.00 | 0.00 | 89 | 1015.6 |
| 20260505040042 | 52 | 86 | 0.0 | 0.0 | 0.00 | 0.00 | 0.00 | 88 | 1015.6 |
| 20260505035537 | 52 | 85 | 0.0 | 0.0 | 0.00 | 0.00 | 0.00 | 88 | 1015.5 |
| 20260505035034 | 52 | 86 | 0.0 | 0.0 | 0.00 | 0.00 | 0.00 | 87 | 1015.6 |
| 20260505034531 | 53 | 86 | 0.0 | 0.0 | 0.00 | 0.00 | 0.00 | 87 | 1015.5 |
| 20260505034028 | 53 | 86 | 0.0 | 0.0 | 0.00 | 0.00 | 0.00 | 87 | 1015.5 |
| 20260505033525 | 53 | 86 | 0.0 | 0.0 | 0.00 | 0.00 | 0.00 | 87 | 1015.7 |
| 20260505033023 | 53 | 86 | 0.0 | 0.0 | 0.00 | 0.00 | 0.00 | 87 | 1015.5 |
| 20260505032520 | 53 | 86 | 0.0 | 0.0 | 0.00 | 0.00 | 0.00 | 86 | 1015.5 |
| 20260505032017 | 53 | 87 | 0.0 | 0.0 | 0.00 | 0.00 | 0.00 | 87 | 1015.6 |
| 20260505031514 | 53 | 88 | 0.0 | 0.0 | 0.00 | 0.00 | 0.00 | 86 | 1015.6 |
| 20260505031010 | 53 | 87 | 0.0 | 0.0 | 0.00 | 0.00 | 0.00 | 86 | 1015.5 |
| 20260505030507 | 54 | 87 | 0.0 | 0.0 | 0.00 | 0.00 | 0.00 | 85 | 1015.6 |
| 20260505030003 | 54 | 87 | 0.0 | 0.0 | 0.00 | 0.00 | 0.00 | 83 | 1015.5 |
| 20260505025459 | 55 | 87 | 0.0 | 0.0 | 0.00 | 0.00 | 0.00 | 83 | 1015.5 |
| 20260505024959 | 55 | 87 | 0.0 | 0.0 | 0.00 | 0.00 | 0.00 | 83 | 1015.8 |
| 20260505024455 | 55 | 87 | 0.0 | 0.0 | 0.00 | 0.00 | 0.00 | 82 | 1015.8 |